Location: Sungai Bunut
(2.6333°N, 113.7333°E)
Time: 03:25:16
(UTC+00:00)

S-56A Canister/Altair - Pass Details

Date: 05 December 2023
Orbit: 640 x 2488 km, 38.9° (Epoch: 24 February)

Event Time Altitude Azimuth Distance (km) Brightness Sun altitude
Rises 22:42:53 0° 215° (SW) 5,551 11.8 5.2°
Reaches altitude 10° 22:47:21 10° 207° (SSW) 4,266 11.3 6.3°
Maximum altitude 22:56:59 36° 145° (SE) 2,092 10.7 8.5°
Drops below altitude 10° 23:03:40 10° 80° (E) 2,949 11.7 10.0°
Sets 23:06:10 0° 71° (ENE) 3,692 11.8 10.6°
